FENGYUN 1C DEB, 30521

Orbit data source: Space-Track

FENGYUN 1C DEB, 30521 is space debris in SSO originally from a launch on Mon, 10 May 1999 UTC launched from the Taiyaun Space Center, China (TSC). Fengyun 1C debris stems from the Chinese weather satellite Fengyun-1C, which was intentionally destroyed by a Chinese anti-satellite missile in 2007. This event dramatically increased the amount of space debris, with thousands of trackable fragments posing hazards to satellites and human spaceflight. The Fengyun 1C debris cloud has become a focal point in discussions about space sustainability and the need for international regulations to prevent the creation of new debris.

Loading next visibility...
Identifier
30521, 1999-025AJK
Orbit
SSO
Country
Flag of CNCN / PRC
Related business
Manufacturer
Unknown
Mission
Spacecraft
Bus & Motor
Unknown
Mass
Unknown
Launch date (UTC)
1999-05-10 (27 years ago)
Launch vehicle
Unknown
Launch site
Taiyaun Space Center, China (TSC)
Object type
Payload
Rocket body
Debris
Shape & HBR
Unknown shape, 0.1 m
Radar Cross Section
Small (<0.1 m²)

Expand to show TLE details & history
Last TLE update: 9 hours ago

TLE from 9 hours ago
0 FENGYUN 1C DEB
1 30521U 99025AJK 26122.16450940  .00004492  00000-0  84929-3 0  9992
2 30521  99.0073 274.0380 0134340 176.1085 184.1190 14.59295002 16275
Epoch: 2026-05-02T03:56Z
TLE epoch observation values (Epoch: 2026-05-02T03:56:53.612Z)
Latitude
-0.00004°
Longitude
-5.27172°
Altitude
793.217 km
Speed
7.407 km/s
True Right ascension
18h 16m 09s
True Declination
0° 00' 00"
Sunlit
Object was in full shadow at epoch
Visualization orbit readout
Latitude
Unknown
Longitude
Unknown
Altitude
Unknown
Speed
Unknown
Apparent Right ascension
Unknown
Apparent Declination
Unknown
Sunlit
N/A
Visualization observer readout
Local Sidereal Time
21:02:13
Azimuth
Unknown
Elevation
Unknown
Doppler factor
Unknown
Orbital elements
Apogee altitude
787.559 km
Perigee altitude
597.584 km
Semi-major axis
7,070.709 km
Eccentricity
0.01343
Inclination
99.0073°
RAAN
274.038°
Arg. of periapsis
176.1085°
True anomaly
184.01025°
Mean anomaly
184.119°
Eccentric anomaly
184.06444°
Mean motion
3.65047 °/min
Orbital period
98.62 mins
BSTAR
0.00084929
Loading maneuver chart data...
Computing Atmospheric mass density...

Documentation

Showing up to 5 results
|